Content
SEND FEEDBACK

Daily
Averages
Monthly
Summary
United Kingdom

CARDIFF, WALES


Home > Europe > United Kingdom > Wales
Elevation: 220 feet     Latitude: 51 24N     Longitude: 003 21W

WEATHER
 
SELECT A DAY
Number of Records: 280,794;   Date Range: 7/1/96 - 11/23/14
 
SHARE

PRINT THIS DATA

[ ← Previous Day ]
WEATHER ALMANAC - FEBRUARY 22, 2013
[ Next Day → ]
[ °C ]   °F
Weather ElementAverageHighLow
Temperature32.8 °F33.8 °F (10:20 am)32 °F (12:50 am)
Dewpoint20.1 °F23 °F (10:20 pm)17.6 °F (6:20 am)
Humidity59.7 %69 % (10:20 pm)55 % (6:20 am)
Barometer30.13 in30.15 in (7:50 am)30.12 in (12:50 am)
Wind Speed15.2 mph19.6 mph (1:50 am)
Wind Gust33.4 mph (12:50 am)
Weather ElementAverage
Visibility6.2 mi
Wind DirectionENE (68 °)

Weather ElementTotal
Precipitation---
Heating Degree Days32.1 (Base 65)
Averaged from 45 records on February 22, 2013
WEATHER CONDITIONS BREAKOUT
WIND DIRECTION BREAKOUT
WEATHER BY HOUR - FEBRUARY 22, 2013
[ °C ]   °F
Local TimeTemperatureDewpointHumidityBarometerVisibilityWind DirectionWind SpeedGust SpeedPrecipitationEventsConditions
12:50 AM32.0 °F19.4 °F60 %30.12 in6.2 miEast (80°)17.3 mph33.4 mphMostly Cloudy
1:20 AM32.0 °F19.4 °F60 %30.12 in6.2 miEast (90°)17.3 mphOvercast
1:50 AM32.0 °F19.4 °F60 %30.12 in6.2 miEast (90°)19.6 mphMostly Cloudy
2:20 AM32.0 °F19.4 °F60 %30.12 in6.2 miEast (90°)19.6 mphMostly Cloudy
2:50 AM32.0 °F19.4 °F60 %30.12 in6.2 miEast (90°)19.6 mph31.1 mphMostly Cloudy
3:20 AM32.0 °F19.4 °F60 %30.12 in6.2 miEast (80°)18.4 mphOvercast
3:50 AM32.0 °F19.4 °F60 %30.12 in6.2 miEast (80°)19.6 mphOvercast
4:20 AM32.0 °F19.4 °F60 %30.12 in6.2 miEast (80°)19.6 mphOvercast
4:50 AM32.0 °F19.4 °F60 %30.12 in6.2 miEast (90°)15.0 mphOvercast
5:20 AM32.0 °F19.4 °F60 %30.12 in6.2 miEast (80°)17.3 mphOvercast
5:50 AM32.0 °F19.4 °F60 %30.12 in6.2 miEast (80°)15.0 mphMostly Cloudy
6:20 AM32.0 °F17.6 °F55 %30.12 in6.2 miEast (80°)16.1 mphMostly Cloudy
6:50 AM32.0 °F17.6 °F55 %30.12 in6.2 miENE (70°)17.3 mphMostly Cloudy
7:20 AM32.0 °F19.4 °F60 %30.12 in6.2 miENE (70°)17.3 mphMostly Cloudy
7:50 AM32.0 °F19.4 °F60 %30.15 in6.2 miEast (90°)15.0 mphMostly Cloudy
8:20 AM32.0 °F19.4 °F60 %30.15 in6.2 miEast (80°)15.0 mphMostly Cloudy
8:50 AM32.0 °F19.4 °F60 %30.15 in6.2 miEast (80°)15.0 mphMostly Cloudy
10:20 AM33.8 °F21.2 °F60 %30.15 in6.2 miEast (90°)16.1 mphMostly Cloudy
10:50 AM33.8 °F21.2 °F60 %30.15 in6.2 miENE (60°)16.1 mphMostly Cloudy
11:20 AM33.8 °F21.2 °F60 %30.15 in6.2 miENE (70°)13.8 mphMostly Cloudy
11:50 AM33.8 °F19.4 °F56 %30.15 in6.2 miENE (70°)16.1 mphMostly Cloudy
12:20 PM33.8 °F21.2 °F60 %30.15 in6.2 miENE (70°)16.1 mphMostly Cloudy
12:50 PM33.8 °F21.2 °F60 %30.15 in6.2 miENE (70°)16.1 mphMostly Cloudy
1:20 PM33.8 °F19.4 °F56 %30.12 in6.2 miENE (70°)16.1 mphMostly Cloudy
1:50 PM33.8 °F19.4 °F56 %30.12 in6.2 miENE (70°)16.1 mphMostly Cloudy
2:20 PM33.8 °F19.4 °F56 %30.12 in6.2 miENE (60°)16.1 mphMostly Cloudy
2:50 PM33.8 °F19.4 °F56 %30.12 in6.2 miENE (70°)17.3 mphMostly Cloudy
3:20 PM33.8 °F19.4 °F56 %30.12 in6.2 miENE (60°)17.3 mphMostly Cloudy
3:50 PM33.8 °F19.4 °F56 %30.12 in6.2 miENE (60°)12.7 mphMostly Cloudy
4:20 PM33.8 °F19.4 °F56 %30.12 in6.2 miENE (60°)13.8 mphMostly Cloudy
4:50 PM33.8 °F19.4 °F56 %30.12 in6.2 miENE (60°)15.0 mphMostly Cloudy
5:20 PM33.8 °F19.4 °F56 %30.12 in6.2 miENE (60°)16.1 mphMostly Cloudy
5:50 PM33.8 °F19.4 °F56 %30.12 in6.2 miENE (60°)15.0 mphMostly Cloudy
6:20 PM33.8 °F19.4 °F56 %30.15 in6.2 miNE (50°)13.8 mphMostly Cloudy
6:50 PM33.8 °F21.2 °F60 %30.15 in6.2 miNE (50°)13.8 mphOvercast
7:20 PM33.8 °F19.4 °F56 %30.15 in6.2 miNE (50°)13.8 mphMostly Cloudy
7:50 PM32.0 °F21.2 °F64 %30.15 in6.2 miNE (50°)15.0 mphMostly Cloudy
8:20 PM32.0 °F21.2 °F64 %30.15 in6.2 miENE (70°)11.5 mphMostly Cloudy
8:50 PM32.0 °F21.2 °F64 %30.15 in6.2 miENE (60°)11.5 mphMostly Cloudy
9:20 PM32.0 °F21.2 °F64 %30.15 in6.2 miENE (60°)10.4 mphMostly Cloudy
9:50 PM32.0 °F21.2 °F64 %30.15 in6.2 miNE (40°)9.2 mphMostly Cloudy
10:20 PM32.0 °F23.0 °F69 %30.15 in6.2 miNE (50°)11.5 mphMostly Cloudy
10:50 PM32.0 °F23.0 °F69 %30.15 in6.2 miNE (40°)10.4 mphMostly Cloudy
11:20 PM33.8 °F23.0 °F65 %30.15 in6.2 miNE (40°)10.4 mphOvercast
11:50 PM33.8 °F23.0 °F65 %30.15 in6.2 miNE (40°)10.4 mphOvercast
Hourly data recorded from EGFF, located miles away from Cardiff, Wales







STORIES FROM OUR PARTNERS